Regional Weather Roundup
Issued by NWS

Home | Current Version | Previous Version | Graphics & Text | Print | Product List | Glossary On
Versions: 1 2 3 4 5 6 7 8 9 10 11 12 13 14 15 16 17 18 19 20 21 22 23 24 25 26 27 28 29 30 31 32 33 34 35 36 37 38 39 40 41 42 43 44 45 46 47 48 49 50
000
ASUS43 KFSD 242310
RWRSD

WEATHER ROUNDUP FOR SOUTH DAKOTA
NATIONAL WEATHER SERVICE SIOUX FALLS SD
600 PM CDT SUN SEP 24 2017

NOTE: "FAIR" INDICATES FEW OR NO CLOUDS BELOW 12,000 FEET WITH NO
SIGNIFICANT WEATHER AND/OR OBSTRUCTIONS TO VISIBILITY.


SDZ001>005-009-010-012>017-250000-
NORTHWEST AND NORTH CENTRAL SOUTH DAKOTA

CITY           SKY/WX    TMP DP  RH WIND       PRES   REMARKS
BUFFALO          N/A     48  41  76 NW10      30.03R
FAITH            N/A     48  47  96 N14       30.07R
MOBRIDGE       CLOUDY    52  47  83 NW13      30.01R
$$

SDZ012>016-024>037-041>051-057-063-072>074-250000-
SOUTHWEST AND SOUTH CENTRAL SOUTH DAKOTA

CITY           SKY/WX    TMP DP  RH WIND       PRES   REMARKS
RAPID CTY ARPT CLOUDY    50  41  71 N15       30.07R
PIERRE         CLOUDY    55  46  71 N15       30.01R
CUSTER         CLOUDY    41  38  89 NE9       30.06R FOG
ELLSWORTH AFB  CLOUDY    50  42  76 N12       30.06R
PHILIP         CLOUDY    53  45  74 N13       30.05R
PINE RIDGE     CLOUDY    50  44  80 NE7       30.06R
SPEARFISH      CLOUDY    43  43 100 NW5       30.10R
WINNER         CLOUDY    56  50  80 N13       30.02R
$$

SDZ004>011-016>023-039-040-250000-
NORTHEAST SOUTH DAKOTA

CITY           SKY/WX    TMP DP  RH WIND       PRES   REMARKS
ABERDEEN       CLOUDY    54  50  86 NW13      29.97R
WATERTOWN      CLOUDY    55  54  96 NW9       29.92S
BROOKINGS      LGT RAIN  57  54  89 W7        29.94R
SISSETON         N/A     56  54  93 NW10      29.91R
$$

SDZ017-020-022-023-036>040-048>070-250000-
SOUTHEAST SOUTH DAKOTA

CITY           SKY/WX    TMP DP  RH WIND       PRES   REMARKS
SIOUX FALLS    LGT RAIN  61  59  93 NW8       29.94R
HURON          CLOUDY    56  53  90 NW10      29.97R
CHAMBERLAIN    CLOUDY    57  53  85 N10       30.00S
MITCHELL       CLOUDY    57  54  89 NW13      29.98R
YANKTON        LGT RAIN  58  55  90 NW9       29.96S
$$

ABBREVIATIONS USED IN REMARKS
   TC - TEMPERATURE IN CELSIUS
  WCI - WIND CHILL INDEX
   HX - HEAT INDEX
  VSB - VISIBILITY





USA.gov is the U.S. government's official web portal to all federal, state and local government web resources and services.